Regional Weather Roundup
Issued by NWS Wakefield, VA

Home | Current Version | Previous Version | Graphics & Text | Print | Product List | Glossary On
Versions: 1 2 3 4 5 6 7 8 9 10 11 12 13 14 15 16 17 18 19 20 21 22 23 24 25 26 27
000
ASUS41 KAKQ 231115
RWRAKQ

REGIONAL WEATHER ROUNDUP
NATIONAL WEATHER SERVICE WAKEFIELD VA
700 AM EDT SAT JUL 23 2016

Note: "fair" indicates few or no clouds below 12,000 feet with no
significant weather and/or obstructions to visibility. * = Denotes
station may not report precipitation (e.g., rain,snow,etc.),
thunder or fog.

VAZ042-051-052>054-056-231200-
NORTHERN VIRGINIA

CITY           SKY/WX    TMP DP  RH WIND       PRES   REMARKS
WASH NATIONAL  FAIR      81  71  71 NW7       29.95R
DULLES         FAIR      74  70  87 NW3       29.97R
FORT BELVOIR   FAIR      71  69  95 CALM      29.95R
QUANTICO       FAIR      76  72  87 W3        29.95R
FREDERICKSBRG* FAIR      73  73 100 CALM      29.95R
STAFFORD*      FAIR      70  69  96 CALM      29.99R FOG
WARRENTON      FAIR      70  66  86 CALM      29.96R FOG
CULPEPER*      FAIR      70  70 100 CALM      29.98R FOG
MANASSAS*      CLEAR     72  72 100 CALM      29.96R
LEESBURG*      FAIR      79  72  78 SW8       29.98R
WINCHESTER     FAIR      73  68  83 CALM      30.00R
FRONT ROYAL*   FAIR      70  68  94 S5        30.00R
LURAY*         FAIR      68  68 100 CALM      30.01S
$$

VAZ048-049-060>072-079>083-231200-
CENTRAL AND SOUTH CENTRAL VIRGINIA

CITY           SKY/WX    TMP DP  RH WIND       PRES   REMARKS
RICHMOND       FAIR      74  73  97 S3        29.96R FOG
CHESTERFIELD*  FAIR      75  63  64 W3        29.98R
PETERSBURG*    FAIR     N/A N/A N/A CALM      29.97R
HANOVER        FAIR      73  70  90 CALM      29.97S FOG
TAPPAHANNOCK*  FAIR      74  74 100 CALM      29.96S FOG
QUINTON*       FAIR      74  74  99 CALM      29.95R FOG
CHARLOTTSVILLE FAIR      74  69  85 S3        29.98R
GORDONSVILLE*  FAIR      69  69 100 CALM      29.97R FOG
ORANGE*          N/A     72  72 100 CALM      29.99R
LOUISA*        FAIR      73  72  94 CALM      29.97R FOG
BUMPASS*       FAIR      71  71 100 CALM      29.97R
FARMVILLE*     FAIR      73  73 100 CALM      29.97R FOG
CREWE*         FAIR      74  74 100 CALM      29.97R
FORT PICKETT*  FAIR      72  71  98 SW5       29.97S
CHASE CITY*    FAIR      72  70  95 CALM      29.99R
CLARKSVILLE*   FAIR      70  70 100 CALM      29.98S
SOUTH HILL*    FAIR      71  70  98 CALM      30.04R
LAWRENCEVILLE* FAIR      72  72  99 CALM      29.98R
EMPORIA*       FAIR      72  72 100 CALM      29.98S
$$

VAZ088>098-231200-
SOUTHEAST VIRGINIA

CITY           SKY/WX    TMP DP  RH WIND       PRES   REMARKS
NORFOLK        FAIR      77  71  82 SW9       29.96R
VIRGINIA BEACH FAIR      80  70  71 SW8       29.96R
NORFOLK NAVAL  FAIR      77  72  84 SW6       29.98R
WEST POINT*    FAIR      76  74  93 CALM      29.96S
SALUDA*        FAIR      76  75  97 CALM      29.95R
NEWPORT NEWS   FAIR      77  73  87 SW7       29.96R
LANGLEY AFB    CLEAR     77  73  88 S7        29.95S
FORT EUSTIS    FAIR      77  73  88 SW5       29.94S
WILLIAMSBURG*  FAIR      77  73  88 CALM      29.97R
HR EXEC AP*    FAIR      73  70  88 SW5       29.99R
FRANKLIN*      FAIR      74  71  89 SW5       29.97S
US460-WAKEFLD  FAIR      74  72  93 CALM      29.96S FOG
$$

VAZ020-022-025-037-045-231200-
WEST CENTRAL AND SOUTHWEST VIRGINIA

CITY           SKY/WX    TMP DP  RH WIND       PRES   REMARKS
STAUNTON*      FAIR      64  64  97 CALM      30.06R FOG
WAYNESBORO*    FAIR      67  66  95 CALM      30.05R
HOT SPRINGS VA FAIR      66  66 100 NW10      30.17S
LYNCHBURG      FAIR      70  69  97 CALM      30.02R
DANVILLE       FAIR      71  69  93 CALM      29.99S
SOUTH BOSTON*  FAIR      71  70  96 CALM      29.99R
MARTINSVILLE   FAIR      66  65  97 CALM      30.05R
ROANOKE        FAIR      72  67  84 W5        30.06R
BLACKSBURG     FAIR      66  65  98 CALM      30.13S FOG
DUBLIN*        FAIR      67  65  94 CALM      30.12R
MARION*        FAIR      64  63  96 CALM      30.16R FOG
HILLSVILLE*    FAIR      66  65  97 CALM      30.13R
RICHLANDS*     FAIR      66  65  98 SE3       30.14S
WISE*          FAIR      70  64  83 CALM      30.15S
ABINGDON*      FAIR      69  67  93 E5        30.11R
$$

MDZ021>025-VAZ099-100-231200-
SOUTHERN MARYLAND AND THE DELMARVA PENINSULA

CITY           SKY/WX    TMP DP  RH WIND       PRES   REMARKS
PATUXENT RIVER CLEAR     77  72  84 SW6       29.93R
BAY BRIDGE APT SUNNY     82  73  74 NW10      29.93R
LEONARDTOWN    CLEAR     73  70  88 CALM      29.96R
DOVER          SUNNY     79  76  92 W8        29.91R
GEORGETOWN     SUNNY     78  73  84 W5        29.92R
EASTON         SUNNY     81  77  89 N3        29.96R
CAMBRIDGE      SUNNY     73  72  94 CALM      29.93R
SALISBURY      SUNNY     78  75  90 W3        29.92S
OCEAN CITY     SUNNY     78  75  90 W6        29.92R
WALLOPS ISLAND FAIR      81  77  88 W7        29.94R
ACCOMACK*      FAIR      81  75  83 CALM      29.95R
$$

NCZ012>017-030>032-231200-
NORTH CENTRAL AND EASTERN NORTH CAROLINA

CITY           SKY/WX    TMP DP  RH WIND       PRES   REMARKS
ROANOKE RAPIDS FAIR      72  70  94 SW6       29.98R
RALEIGH        PTCLDY    73  71  93 CALM      29.99S
ELIZABETH CITY CLEAR     76  72  87 SW6       29.98R
AHOSKIE*       CLEAR     73  71  95 CALM      29.98S
EDENTON*       CLEAR     79  73  81 SW6       29.99S
CURRITUCK*     CLEAR     76  72  87 SW6       29.98S
KILL DEVIL HLS CLEAR     78  73  84 SW6       29.98R
MANTEO           N/A     77  75  94 W9        30.00R
CAPE HATTERAS  CLEAR     81  74  79 W5        30.01R
TARBORO*       FAIR      73  72  96 CALM      29.99S
GOLDSBORO      CLEAR     75  75 100 SW3       29.98S
WASHINGTON     CLEAR     74  71  88 S3        30.00R
GREENVILLE     CLEAR     75  73  94 SW5       30.01R
NEW BERN       CLEAR     75  71  87 S5        30.02R
WILMINGTON     PTCLDY    77  72  84 W7        30.02R
$$

VAZ048-231200-
ELSEWHERE

CITY           SKY/WX    TMP DP  RH WIND       PRES   REMARKS
HARRISBURG PA  MOSUNNY   78  72  81 CALM      29.92R
BALTIMORE      PTCLDY    78  70  76 W7        29.94R
ANNAPOLIS      SUNNY     81  72  74 NW6       29.93R
ANDREWS AFB    NOT AVBL
PHILADELPHIA   MOSUNNY   80  69  69 W9        29.90S
GREENSBORO     MOCLDY    74  70  87 CALM      30.01S
ROCKY MOUNT    CLEAR     72  71  97 CALM      29.99R
$$

VAZ100-231200-
MARINE

STATION/POSITION TIME  TEMP    WIND        PRES    WAVE   SWELL
                       AIR SEA DIR/SP/G            HT/PER HT/PER
                 (UTC) (F)     (DEG/KT/KT) (MB)    (FT/S) (FT/S)
BRANDYWINE LGT   1000   78     290/ 11/ 13   N/A
CAPE MAY NJ      1000   79 75  280/  9/ 11 1012.0R
LEWES DE         1000   78 72  250/  5/  7 1012.4R
OCEAN-CITY-INLET 1000   78 75  290/  7/  9 1013.1R
WACHAPREAGUE VA  1000   78 84  260/  2/  4 1013.5R
THOMAS POINT MD  1100   81 81  300/ 12/ 14 1014.8R
GOOSES REEF MD   1000   82 82  290/  6/  8 1014.1R   1/ 2
COVE POINT MD    1000   81     320/  7/  8 1013.8R
SOLOMONS ISLAND  1000   80 83  270/  3/  6   N/A
BISHOPS HEAD MD  1000   83 84  300/  8/  9 1013.4R
PINEY POINT MD   1000          280/  7/  9   N/A
POTOMAC MD       1000   81 83  260/  8/ 10 1012.4R   1/ 2
CAMBRIDGE MD     1000   80 85  240/  4/  6 1012.3R
LEWISETTA VA     1000   78 84  230/  4/  5 1013.2R
RAPPAHANNOCK LGT 1000          250/ 11/ 12 1014.2R
STINGRAY PT      1000   80 84  200/ 10/ 12 1014.1R   1
YORK RVR RNG VA  1000   79     250/  9/ 12 1013.6R
YORKTOWN VA      1000   77 82  240/  5/  7 1013.7R
JAMESTOWN VA     1000   77 86  240/  6/  8   N/A     0
DOMINION TERM VA 1000   78     250/ 10/ 11 1014.3R
KIPTOPEKE VA     1000      81  240/ 10/ 11   N/A
CHES BAY BRIDGE  1000   78 80  220/ 12/ 14 1013.9R
CAPE HENRY VA    1000   77     220/ 10/ 14   N/A
WILLOUBY STN VA  1000   77     230/ 12/ 14   N/A
CAPE HENRY BUOY  1012      78                N/A     3/ 8
1ST LANDING BUOY 1000   78 79  220/ 12/ 14 1013.9R
CAPE CHARLES BUO 1026      66                N/A     2/ 9
OFFSHORE WE BUOY 1021      80                N/A     4/ 8
64NM E OF VA BCH 1050   80 80  230/ 16/ 19 1014.6R   4/ 4   2/ 9
DUCK PIER NC     1000   79 63  230/ 12/ 15 1014.6R
44100 DUCK FRF   1005      80                N/A     3/ 8
44056 DUCK FRF   1011      68                N/A     2/ 9
OREGON INLET NC  1012   81 85  220/ 15/ 17 1015.4R
HATTERAS NC      1000   80 83  230/  6/  8 1015.6S
DIAMOND SHLS NC  1050   83 85  230/ 10/ 12 1016.3R   2/ 9   2/ 9
CAPE LOOKOUT NC  1100   82     210/  6/  7 1016.0R
$$




USA.gov is the U.S. government's official web portal to all federal, state and local government web resources and services.